Regional Weather Roundup
Issued by NWS

Home | Current Version | Previous Version | Graphics & Text | Print | Product List | Glossary On
Versions: 1 2 3 4 5 6 7 8 9 10 11 12 13 14 15 16 17 18 19 20 21 22 23 24 25 26 27
000
ASUS45 KSLC 190210
RWRUT

UTAH REGIONAL WEATHER ROUNDUP
NATIONAL WEATHER SERVICE SALT LAKE CITY UT
800 PM MDT FRI APR 18 2014

UTZ001>011-023>025-190300-

NORTHERN UTAH

CITY           SKY/WX    TMP DP  RH WIND       PRES   REMARKS
HILL AFB       MOCLDY    59  35  40 NW7       29.93S
LOGAN          CLEAR     54  41  61 N6        29.95F
OGDEN          CLOUDY    59  36  42 NW8       29.91F
PROVO AIRPORT  MOCLDY    57  43  58 NW12      29.92S
SALT LAKE CITY MOCLDY    59  43  55 NW7       29.91F
VERNAL         CLOUDY    62  24  23 SW5       29.88S
WENDOVER       CLOUDY    59  41  51 W5        29.92F
HEBER CITY     CLOUDY    55  32  41 SW6       29.92S
WEST JORDAN    CLEAR     57  43  58 W8        29.93S

$$

UTZ012>022-026-027-190300-

SOUTHERN UTAH

CITY           SKY/WX    TMP DP  RH WIND       PRES   REMARKS
BRYCE CANYON   CLOUDY    50  27  40 SE8       30.09S
CEDAR CITY     MOCLDY    61  19  19 S10       29.96R
MILFORD        CLOUDY    66  20  17 SW10      29.90S
MOAB/CYNLANDS  PTCLDY    73  19  13 SW16      29.86S
PRICE          CLOUDY    65  16  15 NW10      29.93R
ST GEORGE      CLOUDY    73  28  19 S13       29.87R

$$

REGIONAL REPORTS     COLORADO/ARIZONA

CITY           SKY/WX    TMP DP  RH WIND       PRES   REMARKS
CRAIG, CO      CLOUDY    55  32  41 SW8       29.95R
GRAND JUNCTION MOCLDY    64  26  23 NW8       29.89R
RIFLE          MOCLDY    64  27  24 W6        29.92S
MONTROSE       CLOUDY    66  26  22 W17       29.97R
CORTEZ         CLOUDY    63  26  24 SW16      30.03R
PAGE, AZ       CLOUDY    69  28  21 S9        29.94S
GRAND CANYON   CLOUDY    52  32  46 S8        30.09S
KINGMAN        CLOUDY    69  25  19 SE16      29.92R
FLAGSTAFF      LGT RAIN  44  39  82 CALM      30.12S

$$

REGIONAL REPORTS    NEVADA/IDAHO/WYOMING

CITY           SKY/WX    TMP DP  RH WIND       PRES   REMARKS
LAS VEGAS, NV  MOCLDY    79  27  14 S9        29.77S
ELY            CLOUDY    58  32  37 CALM      29.97S
ELKO           CLEAR     63  25  23 W7        29.91S
POCATELLO, ID  CLEAR     53  15  22 SW16      29.97R
BURLEY         CLEAR     53  27  36 W7        29.95S
EVANSTON, WY   CLOUDY    52  32  46 W12       30.00S
ROCK SPRINGS   CLOUDY    54  28  36 W3        29.98S

$$



USA.gov is the U.S. government's official web portal to all federal, state and local government web resources and services.